Regional Weather Roundup
Issued by NWS Tiyan, Guam

Home | Current Version | Previous Version | Text Only | Print | Product List | Glossary On
Versions: 1 2 3 4 5 6 7 8 9 10 11 12 13 14 15 16 17 18 19 20 21 22 23 24 25 26 27 28
000
ASGM40 PGUM 230412
RWRGUM
WEATHER ROUNDUP FOR THE MARIANAS
NATIONAL WEATHER SERVICE TIYAN GU
200 PM CHST TUE MAY 23 2017

GUZ001>004-230500-
MARIANA ISLANDS-

CITY           SKY/WX    TMP DP  RH WIND       PRES   REMARKS
GUAM AIRPORT   MOSUNNY   88  75  66 SE12      29.85F HX  97
ANDERSEN AFB   MOSUNNY   86  75  70 E10       29.87F HX  95
ROTA AIRPORT   MOSUNNY   86  72  62 E14       29.85F HX  92
TINIAN AP      MOSUNNY   86  73  66 E9        29.84F HX  93
SAIPAN AP      MOSUNNY   88  73  62 SE10      29.84F HX  96

$$





USA.gov is the U.S. government's official web portal to all federal, state and local government web resources and services.